This is the latest recevied weather packets stored in our database for station/object KD4EED. If no packets are shown the sender has not sent any weather packets the latest 10 day(s).
| Time | Temp. | Humidity | Pressure | Rain* | Wind** | Luminosity | Snow |
|---|---|---|---|---|---|---|---|
| 1778024317 | 20° C | 52% | 1011.8 hPa | - | - | 517 W/m² | - |
| 1778024015 | 19.44° C | 55% | 1011.6 hPa | - | - | 567 W/m² | - |
| 1778023712 | 18.89° C | 57% | 1011.7 hPa | - | - | 319 W/m² | - |
| 1778023410 | 17.78° C | 59% | 1011.7 hPa | - | - | 329 W/m² | - |
| 1778023106 | 17.78° C | 60% | 1011.8 hPa | - | - | 289 W/m² | - |
| 1778022804 | 17.78° C | 61% | 1011.9 hPa | - | - | 316 W/m² | - |
| 1778022502 | 17.22° C | 64% | 1011.9 hPa | - | - | 214 W/m² | - |
| 1778022199 | 17.22° C | 64% | 1011.8 hPa | - | - | 160 W/m² | - |
| 1778021895 | 17.22° C | 63% | 1011.8 hPa | - | - | 114 W/m² | - |
| 1778021593 | 17.22° C | 62% | 1012 hPa | - | - | 78 W/m² | - |
| 1778021288 | 17.78° C | 62% | 1012 hPa | - | - | 61 W/m² | - |
| 1778020986 | 17.78° C | 61% | 1012.1 hPa | - | - | 54 W/m² | - |
| 1778020683 | 18.33° C | 60% | 1012 hPa | - | - | 69 W/m² | - |
| 1778020379 | 18.33° C | 58% | 1012.1 hPa | - | - | 103 W/m² | - |
| 1778020075 | 18.89° C | 57% | 1012 hPa | - | - | 168 W/m² | - |
| 1778019772 | 19.44° C | 58% | 1012.2 hPa | - | - | 392 W/m² | - |
| 1778019469 | 19.44° C | 56% | 1012 hPa | - | - | 383 W/m² | - |
| 1778019165 | 20° C | 56% | 1012.2 hPa | - | - | 435 W/m² | - |
| 1778018862 | 19.44° C | 56% | 1012 hPa | - | - | 509 W/m² | - |
| 1778018559 | 20° C | 56% | 1012.3 hPa | - | - | 328 W/m² | - |
| 1778018258 | 20° C | 56% | 1012.3 hPa | - | - | 538 W/m² | - |
| 1778017955 | 20° C | 56% | 1012.4 hPa | - | - | 716 W/m² | - |
| 1778017653 | 20° C | 54% | 1012.3 hPa | - | - | 317 W/m² | - |
| 1778017350 | 20° C | 54% | 1012.3 hPa | - | - | 587 W/m² | - |
| 1778017047 | 20° C | 52% | 1012.3 hPa | - | - | 408 W/m² | - |
* Rain since midnight (hover to see other rain measurements)
** Current wind speed in m/s (hover to see current wind gust speed)